Regional Weather Roundup
Issued by NWS

Home | Current Version | Previous Version | Graphics & Text | Print | Product List | Glossary On
Versions: 1 2 3 4 5 6 7 8 9 10 11 12 13 14 15 16 17 18 19 20 21 22 23 24 25 26 27 28 29 30 31 32 33 34 35 36 37 38 39 40 41 42 43 44 45 46 47 48 49 50
000
ASUS43 KMKX 231700
RWRWI

WISCONSIN REGIONAL WEATHER ROUNDUP
NATIONAL WEATHER SERVICE MILWAUKEE/SULLIVAN WI
1200 PM CDT MON OCT 23 2017

NOTE: "FAIR" INDICATES FEW OR NO CLOUDS BELOW 12,000 FEET WITH NO
SIGNIFICANT WEATHER AND/OR OBSTRUCTIONS TO VISIBILITY.

WIZ001-002-006>008-014>016-023>028-231800-
NORTHWEST WISCONSIN

CITY           SKY/WX    TMP DP  RH WIND       PRES   REMARKS
SUPERIOR ARPT  MOSUNNY   60  41  49 W6        29.69F
ASHLAND        CLOUDY    55  40  56 S8        29.71S
HAYWARD        CLOUDY    55  38  52 SW8       29.73S
SIREN          MOSUNNY   57  40  53 W6        29.73S
CUMBERLAND     CLOUDY    54  37  54 W9        29.74F
RICE LAKE      CLOUDY    54  39  57 S6        29.75F
CHETEK         CLOUDY    53  40  61 W3        29.74F
LADYSMITH      PTSUNNY   53  42  67 SW8       29.77R
EAU CLAIRE     NOT AVBL
MENOMONIE      CLOUDY    55  41  59 SW9       29.76F
NEW RICHMOND   CLOUDY    55  40  57 SW6       29.77R
OSCEOLA        CLOUDY    57  42  58 W9        29.79R
$$

WIZ003>005-009-010-017-018-231800-
NORTH CENTRAL WISCONSIN

CITY           SKY/WX    TMP DP  RH WIND       PRES   REMARKS
MANITOWISH WTR MOSUNNY   51  40  65 S14       29.72F
ARBOR VITAE    MOSUNNY   52  40  64 S15       29.75S
WOODRUFF       MOSUNNY   52  40  64 S15       29.75S
RHINELANDER    PTSUNNY   55  38  52 SW10      29.75F
EAGLE RIVER    NOT AVBL
LAND O LAKES   PTSUNNY   55  36  48 SW9       29.76S
PHILLIPS       PTSUNNY   51  39  64 SW10      29.74F
TOMAHAWK       CLOUDY    53  41  64 CALM      29.77S
MEDFORD        PTSUNNY   50  40  68 SW12      29.75F
MERRILL        CLOUDY    51  42  71 S6        29.77F
$$

WIZ029-030-035-036-043>047-231800-
CENTRAL WISCONSIN

CITY           SKY/WX    TMP DP  RH WIND       PRES   REMARKS
WAUSAU         MOSUNNY   51  42  71 SE9       29.75F
MOSINEE        PTSUNNY   48  45  87 SE7       29.77F
MARSHFIELD     CLOUDY    53  40  61 SW12      29.75F
STEVENS POINT  PTSUNNY   49  40  71 S6        29.80F
WAUPACA        CLOUDY    48  47  97 CALM      29.83F
WAUTOMA        CLOUDY   N/A N/A N/A CALM      29.80
WISC RAPIDS    CLOUDY    50  45  83 S7        29.78F
CAMP DOUGLAS   NOT AVBL
$$

WIZ011>013-019>022-031-037>040-048>050-231800-
NORTHEAST WISCONSIN

CITY           SKY/WX    TMP DP  RH WIND       PRES   REMARKS
ANTIGO         CLOUDY    47  38  71 S10       29.79F
SHAWANO        CLOUDY    47  46  95 CALM      29.83F
OCONTO         CLOUDY    47  47  98 NW3       29.83S
STURGEON BAY   CLOUDY    52  44  74 VRB3      29.82F
GREEN BAY      CLOUDY    50  48  93 W3        29.82F
MANITOWOC      CLOUDY    51  43  74 SE3       29.82F
APPLETON       PTSUNNY   52  48  87 CALM      29.82S
CLINTONVILLE   CLOUDY    46  45  93 CALM      29.83F
OSHKOSH        CLOUDY    53  44  71 CALM      29.81F
$$

WIZ032>034-041-042-053>061-231800-
SOUTHWEST WISCONSIN

CITY           SKY/WX    TMP DP  RH WIND       PRES   REMARKS
LA CROSSE      CLOUDY    56  42  59 W9        29.76F
SPARTA         MOSUNNY   54  42  64 SW6       29.76F
VIROQUA        CLOUDY    52  44  74 SW9       29.77F
BOSCOBEL       CLOUDY    50  47  89 CALM      29.79F
PRAIRIE DU CHI PTSUNNY   53  45  73 SW3       29.79F
PLATTEVILLE    CLOUDY    52  50  93 S6        29.81F
$$

WIZ056-057-062-063-064-067-068-231800-
SOUTH CENTRAL WISCONSIN

CITY           SKY/WX    TMP DP  RH WIND       PRES   REMARKS
REEDSBURG      CLOUDY    49  48  96 CALM      29.79F
BARABOO/DELLS  CLOUDY    50  44  79 CALM      29.79F
LONE ROCK      NOT AVBL
MINERAL POINT  CLOUDY    52  50  93 SE3       29.80F
MADISON        CLOUDY    53  46  77 S5        29.81F
MIDDLETON      CLOUDY    55  44  67 CALM      29.81F
WATERTOWN      CLOUDY    47  47 100 CALM      29.82F
MONROE         CLOUDY    54  41  62 S3        29.82F
JANESVILLE     CLOUDY    50  50 100 CALM      29.83F
$$

WIZ051-052-058>065-066-070>072-231800-
SOUTHEAST WISCONSIN

CITY           SKY/WX    TMP DP  RH WIND       PRES   REMARKS
MILWAUKEE      CLOUDY    54  50  86 N3        29.83S
WAUKESHA       SUNNY     48  45  87 CALM      29.84F
MILWAUKEE/TIMM PTSUNNY   52  45  76 CALM      29.83F
RACINE         CLOUDY    52  51  97 NW5       29.83F
BURLINGTON     CLOUDY    50  49  99 CALM      29.83F
KENOSHA        CLOUDY    52  49  89 NW7       29.81F
FOND DU LAC    CLOUDY    52  44  74 SW3       29.82F
SHEBOYGAN      LGT RAIN  53  48  83 CALM      29.82F
WEST BEND      CLOUDY    50  45  81 CALM      29.83S
JUNEAU         CLOUDY    48  47  95 CALM      29.84F
$$

LSZ147-162-231800-
LAKE SUPERIOR

STATION/POSITION TIME  TEMP    WIND        PRES    WAVE
                       AIR SEA DIR/SP/G            HT/PER
                 (UTC) (F)     (DEG/KT/KT) (MB)    (FT/S)
W MID LAKE BUOY  1550   53 51              1005.7F   3/ 5
DEVILS ISLAND    1600   54     200/  7/  9 1005.5F
SAXON HARBOR     1630   59     200/  7/ 15 1005.4S
$$

LMZ867-665-643>646-231800-
LAKE MICHIGAN

STATION/POSITION TIME  TEMP    WIND        PRES    WAVE
                       AIR SEA DIR/SP/G            HT/PER
                 (UTC) (F)     (DEG/KT/KT) (MB)    (FT/S)
S GREEN BAY BUOY 1630   51 58  110/  2/  2 1009.4F
N MID LAKE BUOY  1550   52 57  120/  2/  2 1011.1F   0
NORTHPORT PIER   1640   51     150/  3/  5 1009.5F
KEWAUNEE LAKESHO 1630   49      60/  2/  4 1009.0F
SHEBOYGAN LAKESH 1600   49     350/  7/  8 1010.3F
PORT WASHINGTON  1640   54     330/  2/  4 1010.5F
MILWAUKEE LAKESH 1650   52     310/  3/  4   N/A
S MID LAKE BUOY  1550   54 60   30/ 16/ 17 1009.0F   3/ 5
KENOSHA   LAKESH 1600   52     350/  7/  8 1009.5
$$

TC  - TEMPERATURE IN CELSIUS
VSB - VISIBILITY IN STATUTE MILES
WCI - WIND CHILL INDEX
HX  - HEAT INDEX





USA.gov is the U.S. government's official web portal to all federal, state and local government web resources and services.